Other Public Products
Issued by NWS Charleston, SC

Current Version | Previous Version | Text Only | Print | Product List | Glossary Off
Versions: 1 2 3 4 5 6 7 8 9 10 11 12 13 14 15 16 17 18 19 20 21 22 23 24 25 26 27 28 29 30 31 32 33 34 35 36 37 38 39 40 41 42 43 44 45 46 47 48 49 50

000
FPUS82 KCHS 211512
OPUCHS

TEST...KCHS/KSAV Gateway Observations...TEST
National Weather Service Charleston SC
1100 AM EDT MON MAY 21 2018

NOTE: "fair" indicates few or no clouds below 12,000 feet with no
significant weather and/or obstructions to visibility.

SCZ050-WAZ558-NCZ071-TXZ119-213-PAZ071-DCZ001-FLZ074-172-MI076-
NYZ176-178-MAZ016-IL014-TNZ027-NJZ106-GAZ044-MD014-211600-

...Gateway Observations for Charleston International...

CITY           SKY/WX    TMP DP  RH WIND       PRES   REMARKS
Chas Airport   PTSUNNY   79  71  76 S3        30.18F
Seattle        PTSUNNY   55  47  74 N6        30.08R
Charlotte      PTSUNNY   74  70  87 SW3       30.18F
Dallas DFW     PTSUNNY   75  67  76 S3        30.05R
Dallas Love    PTSUNNY   76  67  73 CALM      30.06R
Philladelphia  FAIR      71  51  49 N13       30.21S
Wash National  PTSUNNY   76  59  55 NE8       30.21S
Baltimore      FAIR      73  57  57 NE8       30.21S
Miami          CLOUDY    79  73  82 E20       30.07R
Detroit        PTSUNNY   62  40  44 E9        30.24F
Newark         PTSUNNY   71  47  42 NE7       30.20R
Laguardia      PTSUNNY   69  46  43 NE8       30.20S
J F K          PTSUNNY   70  42  36 NE9       30.21R
Boston Logan   FAIR      67  47  48 SE6       30.16S
Ft. Lauderdale PTSUNNY   81  74  79 SE21      30.06R
Chicago O`Hare RAIN      54  52  93 E13       30.08F FOG
Chicago Midway LGT RAIN  56  56 100 E12       30.09S
Houston Bush   PTSUNNY   79  75  87 CALM      30.01R
Houston Hobby  CLOUDY    81  77  88 E7        30.00R
Nashville      CLOUDY    78  66  66 CALM      30.14S
Atlanta        PTSUNNY   76  65  68 E9        30.18S

$$

GAZ044-118-TXZ119-213-NCZ071-DCZ001-MDZ014-506-PAZ021-071-NJZ106-
NYZ176-178-MAZ106-OHZ011-021-055-MIZ076-KYZ091-ILZ014-INZ047-
MNZ060-ONZ431-211600-

...Gateway Observations for Savannah International...

CITY           SKY/WX    TMP DP  RH WIND       PRES   REMARKS
Savannah Arpt  PTSUNNY   81  70  69 SE9       30.17S
Atlanta        PTSUNNY   76  65  68 E9        30.18S
Charlotte      PTSUNNY   74  70  87 SW3       30.18F
Dallas DFW     PTSUNNY   75  67  76 S3        30.05R
Houston Bush   PTSUNNY   79  75  87 CALM      30.01R
Wash National  PTSUNNY   76  59  55 NE8       30.21S
Wash Dulles    PTSUNNY   75  61  61 VRB3      30.21F
Baltimore      FAIR      73  57  57 NE8       30.21S
Philadelphia   FAIR      71  51  49 N13       30.21S
Newark         PTSUNNY   71  47  42 NE7       30.20R
Laguardia      PTSUNNY   69  46  43 NE8       30.20S
J F K          PTSUNNY   70  42  36 NE9       30.21R
Boston         FAIR      67  47  48 SE6       30.16S
Pittsburg      PTSUNNY   69  55  60 E6        30.21S
Akron          PTSUNNY   68  55  63 E7        30.22F
Cleveland      PTSUNNY   68  55  63 E7        30.23F
Cincinnati     FAIR      75  66  73 VRB3      30.14F
Columbus       FAIR      68  62  82 MISG      30.17F
Detroit        PTSUNNY   62  40  44 E9        30.24F
Chicago O`Hare RAIN      54  52  93 E13       30.08F FOG
Minneapolis    CLOUDY    63  48  58 SE7       30.08F
Indianapolis   CLOUDY    72  65  78 SE5       30.12R
Toronto Canada PTSUNNY   63  39  42 SE3       30.25F

$$




USA.gov is the U.S. government's official web portal to all federal, state and local government web resources and services.